Change the Weather History Date:

Monday, October 31, 2011

  Actual Average Record
Temperature  
Mean Temperature 56 °F -  
Max Temperature 61 °F 50 °F - ()
Min Temperature 50 °F 40 °F - ()
Degree Days  
Heating Degree Days 10    
Growing Degree Days 6 (Base 50)    
Moisture  
Dew Point 52 °F    
Average Humidity 87    
Maximum Humidity 100    
Minimum Humidity 70    
Precipitation  
Precipitation 0.24 in 0.08 in - ()
Sea Level Pressure  
Sea Level Pressure 29.61 in    
Wind  
Wind Speed 12 mph ()    
Max Wind Speed 22 mph    
Max Gust Speed -    
Visibility 6.3 miles    
Events Rain    
T = Trace of Precipitation, MM = Missing Value Source: Averaged Metar Reports

Daily Weather History Graph

Daily Weather History Graph

Search for Another Location

Airport or City:

Trip Planner

Search our weather history database for the weather conditions in past years. The results will help you decide how hot, cold, wet, or windy it might be!

Date:

Astronomy

Oct. 31, 2011 Rise Set
Actual Time 7:21 AM GMT 4:55 PM GMT
Civil Twilight 6:44 AM GMT 5:32 PM GMT
Nautical Twilight 6:03 AM GMT 6:13 PM GMT
Astronomical Twilight 5:22 AM GMT 6:53 PM GMT
Moon 12:39 PM GMT (10/31) 8:56 PM GMT (10/31)
Length of Visible Light 10h 47m
Length of Day
9h 34m
Waxing Crescent, 28% of the Moon is Illuminated
Oct 31
Waxing Crescent
Nov 2
First Quarter
Nov 10
Full
Nov 18
Last Quarter
Nov 25
New

Hourly Weather History & Observations

Time (GMT) Temp. Dew Point Humidity Pressure Visibility Wind Dir Wind Speed Gust Speed Precip Events Conditions
12:00 AM 58 °F 56 °F 91% 29.74 in 9 mi SSE 15.7 mph - -   Partly Cloudy
12:00 AM 59.0 °F 55.4 °F 88% 29.74 in 6.2 mi SSE 15.0 mph - N/A   Mostly Cloudy
12:30 AM 59.0 °F 57.2 °F 94% 29.71 in 5.0 mi SSE 15.0 mph - N/A   Mostly Cloudy
1:00 AM 57.2 °F 55.4 °F 94% 29.71 in 5.0 mi SE 15.0 mph - N/A   Mostly Cloudy
1:30 AM 57.2 °F 55.4 °F 94% 29.71 in 5.0 mi SSE 12.7 mph - N/A   Mostly Cloudy
2:00 AM 57.2 °F 57.2 °F 100% 29.71 in 5.0 mi SE 13.8 mph - N/A   Mostly Cloudy
2:30 AM 59.0 °F 57.2 °F 94% 29.68 in 5.0 mi ESE 12.7 mph - N/A   Mostly Cloudy
3:00 AM 59.0 °F 57.2 °F 94% 29.68 in 6.2 mi SE 9.2 mph - N/A   Mostly Cloudy
3:30 AM 59.0 °F 57.2 °F 94% 29.68 in 6.2 mi ESE 9.2 mph - N/A   Mostly Cloudy
4:00 AM 60.8 °F 55.4 °F 82% 29.65 in 6.2 mi East 8.1 mph - N/A   Mostly Cloudy
4:30 AM 60.8 °F 55.4 °F 82% 29.65 in 6.2 mi Variable 3.5 mph - N/A   Mostly Cloudy
5:00 AM 60.8 °F 55.4 °F 82% 29.65 in 6.2 mi East 8.1 mph - N/A   Mostly Cloudy
5:30 AM 60.8 °F 53.6 °F 77% 29.65 in 6.2 mi SSW 9.2 mph - N/A   Mostly Cloudy
6:00 AM 60 °F 53 °F 70% 29.64 in 12 mi South 17.9 mph - - Rain Light Rain
6:00 AM 59.0 °F 53.6 °F 82% 29.62 in 6.2 mi South 19.6 mph - N/A Rain Light Rain
6:30 AM 59.0 °F 53.6 °F 82% 29.62 in 6.2 mi South 15.0 mph - N/A   Mostly Cloudy
7:00 AM 59.0 °F 51.8 °F 77% 29.62 in 6.2 mi South 17.3 mph - N/A   Mostly Cloudy
7:30 AM 59.0 °F 53.6 °F 82% 29.62 in 6.2 mi South 18.4 mph - N/A   Mostly Cloudy
8:00 AM 59.0 °F 53.6 °F 82% 29.62 in 6.2 mi South 17.3 mph - N/A Rain Light Rain
8:30 AM 60.8 °F 51.8 °F 72% 29.62 in 6.2 mi South 19.6 mph - N/A   Mostly Cloudy
9:00 AM 60.8 °F 53.6 °F 77% 29.62 in 6.2 mi South 16.1 mph - N/A Rain Light Rain
9:30 AM 60.8 °F 51.8 °F 72% 29.59 in 6.2 mi South 17.3 mph - N/A   Mostly Cloudy
10:00 AM 60.8 °F 51.8 °F 72% 29.59 in 6.2 mi South 21.9 mph - N/A   Mostly Cloudy
10:30 AM 60.8 °F 53.6 °F 77% 29.59 in 6.2 mi South 19.6 mph - N/A   Mostly Cloudy
11:00 AM 60.8 °F 53.6 °F 77% 29.59 in 6.2 mi South 20.7 mph - N/A   Mostly Cloudy
11:30 AM 59.0 °F 55.4 °F 88% 29.59 in 6.2 mi South 20.7 mph - N/A Rain Light Rain
12:00 PM 58 °F 55 °F 86% 29.58 in 12 mi SSE 20.1 mph - - Rain Light Rain
12:00 PM 59.0 °F 55.4 °F 88% 29.56 in 6.2 mi SSE 20.7 mph - N/A   Mostly Cloudy
12:30 PM 59.0 °F 55.4 °F 88% 29.56 in 6.2 mi SSE 19.6 mph - N/A   Mostly Cloudy
1:00 PM 57.2 °F 55.4 °F 94% 29.56 in 6.2 mi SSE 18.4 mph - N/A Rain Light Rain
1:30 PM 57.2 °F 55.4 °F 94% 29.53 in 6.2 mi SSE 17.3 mph - N/A   Mostly Cloudy
2:00 PM 53.6 °F 51.8 °F 94% 29.53 in 6.2 mi SSW 15.0 mph - N/A Rain Light Rain
2:30 PM 51.8 °F 50.0 °F 94% 29.56 in 1.9 mi West 13.8 mph - N/A Rain Light Rain
3:00 PM 50.0 °F 50.0 °F 100% 29.56 in 2.2 mi WSW 13.8 mph - N/A Rain Light Rain
3:30 PM 51.8 °F 50.0 °F 94% 29.56 in 6.2 mi WSW 9.2 mph - N/A   Mostly Cloudy
4:00 PM 51.8 °F 50.0 °F 94% 29.56 in 6.2 mi SW 9.2 mph - N/A   Mostly Cloudy
4:30 PM 51.8 °F 50.0 °F 94% 29.56 in 6.2 mi SW 10.4 mph - N/A Rain Light Rain
5:00 PM 51.8 °F 50.0 °F 94% 29.56 in 6.2 mi SW 9.2 mph - N/A Rain Light Rain
5:30 PM 51.8 °F 50.0 °F 94% 29.56 in 6.2 mi SSW 8.1 mph - N/A Rain Light Rain
6:00 PM 52 °F 50 °F 89% 29.58 in 12 mi South 6.7 mph - - Rain Light Rain
6:00 PM 51.8 °F 50.0 °F 94% 29.56 in 6.2 mi SSW 6.9 mph - N/A   Mostly Cloudy
6:30 PM 51.8 °F 50.0 °F 94% 29.56 in 6.2 mi SSW 5.8 mph - N/A   Mostly Cloudy
7:00 PM 51.8 °F 48.2 °F 88% 29.56 in 6.2 mi SSW 9.2 mph - N/A   Mostly Cloudy
7:30 PM 51.8 °F 48.2 °F 88% 29.59 in 6.2 mi SSW 6.9 mph - N/A   Mostly Cloudy
8:00 PM 51.8 °F 48.2 °F 88% 29.59 in 6.2 mi SSW 10.4 mph - N/A   Mostly Cloudy
8:30 PM 51.8 °F 48.2 °F 88% 29.59 in 6.2 mi South 8.1 mph - N/A   Mostly Cloudy
9:00 PM 51.8 °F 48.2 °F 88% 29.59 in 6.2 mi SSW 8.1 mph - N/A   Mostly Cloudy
9:30 PM 51.8 °F 48.2 °F 88% 29.59 in 6.2 mi South 6.9 mph - N/A   Mostly Cloudy
10:00 PM 51.8 °F 48.2 °F 88% 29.59 in 6.2 mi South 5.8 mph - N/A   Mostly Cloudy
10:30 PM 51.8 °F 48.2 °F 88% 29.59 in 6.2 mi SSW 8.1 mph - N/A   Mostly Cloudy
11:00 PM 50.0 °F 48.2 °F 94% 29.59 in 6.2 mi SSW 11.5 mph - N/A   Mostly Cloudy
11:30 PM 50.0 °F 46.4 °F 87% 29.59 in 6.2 mi SW 11.5 mph - N/A   Mostly Cloudy